LRTC Weather Reports


time (UTC)temp
F
wind
direction
speed
knots
gust
knots
rain 1hr
in
rain 24hr
in
rain mn
in
humidity
%
barometer
mb
20260508071845 59 130 9.6 0.0 0.00 0.00 0.00 82 1017.0
20260508070345 59 130 9.6 0.0 0.00 0.00 0.00 82 1017.0
20260508064845 59 150 8.7 0.0 0.00 0.00 0.00 82 1017.0
20260508063345 59 150 8.7 0.0 0.00 0.00 0.00 82 1017.0
20260508061841 57 150 9.6 0.0 0.00 0.00 0.00 82 1017.0
20260508060345 57 150 9.6 0.0 0.00 0.00 0.00 82 1017.0
20260508054842 55 140 7.8 0.0 0.00 0.00 0.00 88 1017.0
20260508053344 55 140 7.8 0.0 0.00 0.00 0.00 88 1017.0
20260508051845 54 150 7.8 0.0 0.00 0.00 0.00 94 1017.0
20260508050345 54 150 7.8 0.0 0.00 0.00 0.00 94 1017.0
20260508044845 54 150 8.7 0.0 0.00 0.00 0.00 88 1017.0
20260508043345 54 150 8.7 0.0 0.00 0.00 0.00 88 1017.0
20260508040346 54 170 7.0 0.0 0.00 0.00 0.00 88 1017.0
20260508033345 52 180 6.1 0.0 0.00 0.00 0.00 94 1017.0
20260508030345 52 170 5.2 0.0 0.00 0.00 0.00 94 1017.0
20260508024845 52 140 6.1 0.0 0.00 0.00 0.00 94 1016.0
20260508023345 52 140 6.1 0.0 0.00 0.00 0.00 94 1016.0
20260508021846 52 150 7.0 0.0 0.00 0.00 0.00 94 1016.0
20260508020345 52 150 7.0 0.0 0.00 0.00 0.00 94 1016.0
20260508014841 52 140 7.0 0.0 0.00 0.00 0.00 94 1016.0
20260508013345 52 140 7.0 0.0 0.00 0.00 0.00 94 1016.0
20260508011845 52 140 6.1 0.0 0.00 0.00 0.00 94 1016.0
20260508010344 52 140 6.1 0.0 0.00 0.00 0.00 94 1016.0
20260508004845 52 130 7.0 0.0 0.00 0.00 0.00 94 1016.0
20260508003344 52 130 7.0 0.0 0.00 0.00 0.00 94 1016.0
20260508001841 52 140 6.1 0.0 0.00 0.00 0.00 94 1017.0
20260508000344 52 140 6.1 0.0 0.00 0.00 0.00 94 1017.0
20260507234842 52 150 8.7 0.0 0.00 0.00 0.00 94 1017.0
20260507233344 52 150 8.7 0.0 0.00 0.00 0.00 94 1017.0
20260507230344 52 160 7.8 0.0 0.00 0.00 0.00 94 1017.0
20260507224844 54 150 7.0 0.0 0.00 0.00 0.00 94 1017.0
20260507223505 54 150 7.0 0.0 0.00 0.00 0.00 94 1017.0
20260507221841 54 160 7.8 0.0 0.00 0.00 0.00 94 1017.0
20260507220344 54 160 7.8 0.0 0.00 0.00 0.00 94 1017.0
20260507214844 54 140 8.7 0.0 0.00 0.00 0.00 94 1017.0
20260507213346 54 140 8.7 0.0 0.00 0.00 0.00 94 1017.0
20260507211845 52 150 7.0 0.0 0.00 0.00 0.00 100 1017.0
20260507210345 52 150 7.0 0.0 0.00 0.00 0.00 100 1017.0
20260507204844 52 150 7.0 0.0 0.00 0.00 0.00 100 1017.0
20260507203345 52 150 7.0 0.0 0.00 0.00 0.00 100 1017.0
20260507200345 52 140 7.0 0.0 0.00 0.00 0.00 94 1017.0
20260507194850 52 140 7.0 0.0 0.00 0.00 0.00 94 1017.0
20260507193344 52 140 7.0 0.0 0.00 0.00 0.00 94 1017.0
20260507190345 52 140 7.0 0.0 0.00 0.00 0.00 94 1017.0
20260507184846 52 140 7.0 0.0 0.00 0.00 0.00 94 1017.0
20260507183344 52 140 7.0 0.0 0.00 0.00 0.00 94 1017.0
20260507181845 52 140 7.0 0.0 0.00 0.00 0.00 94 1017.0
20260507180344 52 140 7.0 0.0 0.00 0.00 0.00 94 1017.0
20260507174844 54 140 8.7 0.0 0.00 0.00 0.00 94 1017.0
20260507173345 54 140 8.7 0.0 0.00 0.00 0.00 94 1017.0
20260507171845 54 140 8.7 0.0 0.00 0.00 0.00 88 1017.0
20260507170344 54 140 8.7 0.0 0.00 0.00 0.00 88 1017.0
20260507164845 55 140 11.3 0.0 0.00 0.00 0.00 82 1017.0
20260507163345 55 140 11.3 0.0 0.00 0.00 0.00 82 1017.0
20260507161844 57 150 12.2 0.0 0.00 0.00 0.00 77 1017.0
20260507160344 57 150 12.2 0.0 0.00 0.00 0.00 77 1017.0
20260507154845 59 150 13.0 0.0 0.00 0.00 0.00 72 1017.0
20260507153345 59 150 13.0 0.0 0.00 0.00 0.00 72 1017.0
20260507151844 61 150 13.9 0.0 0.00 0.00 0.00 68 1017.0
20260507150344 61 150 13.9 0.0 0.00 0.00 0.00 68 1017.0
20260507144844 61 150 14.8 0.0 0.00 0.00 0.00 68 1017.0
20260507143346 61 150 14.8 0.0 0.00 0.00 0.00 68 1017.0
20260507141845 63 150 13.9 0.0 0.00 0.00 0.00 68 1018.0
20260507140344 63 150 13.9 0.0 0.00 0.00 0.00 68 1018.0
20260507134845 63 160 14.8 0.0 0.00 0.00 0.00 68 1017.0
20260507133344 63 160 14.8 0.0 0.00 0.00 0.00 68 1017.0
20260507131841 63 160 14.8 0.0 0.00 0.00 0.00 68 1018.0
20260507130344 63 160 14.8 0.0 0.00 0.00 0.00 68 1018.0
20260507124841 64 160 13.9 0.0 0.00 0.00 0.00 64 1018.0
20260507123422 64 160 13.9 0.0 0.00 0.00 0.00 64 1018.0
20260507121844 64 150 13.9 0.0 0.00 0.00 0.00 64 1018.0
20260507120344 64 150 13.9 0.0 0.00 0.00 0.00 64 1018.0
20260507114844 66 140 13.0 0.0 0.00 0.00 0.00 60 1018.0
20260507113405 66 140 13.9 0.0 0.00 0.00 0.00 64 1018.0
20260507111844 66 140 13.9 0.0 0.00 0.00 0.00 64 1018.0
20260507110344 66 140 13.9 0.0 0.00 0.00 0.00 64 1018.0
20260507104844 64 130 13.0 0.0 0.00 0.00 0.00 68 1018.0
20260507103344 64 130 13.0 0.0 0.00 0.00 0.00 68 1018.0
20260507101844 64 130 13.9 0.0 0.00 0.00 0.00 60 1018.0
20260507100345 64 130 13.9 0.0 0.00 0.00 0.00 60 1018.0
20260507094845 66 150 12.2 0.0 0.00 0.00 0.00 56 1018.0
20260507093345 66 150 12.2 0.0 0.00 0.00 0.00 56 1018.0
20260507091846 64 150 13.0 0.0 0.00 0.00 0.00 56 1018.0
20260507090344 64 150 13.0 0.0 0.00 0.00 0.00 56 1018.0
20260507084844 64 140 11.3 0.0 0.00 0.00 0.00 60 1018.0
20260507083345 64 140 11.3 0.0 0.00 0.00 0.00 60 1018.0
20260507081844 63 160 8.7 0.0 0.00 0.00 0.00 68 1018.0
20260507080345 63 160 8.7 0.0 0.00 0.00 0.00 68 1018.0
20260507074845 61 170 9.6 0.0 0.00 0.00 0.00 72 1018.0
20260507073344 61 170 9.6 0.0 0.00 0.00 0.00 72 1018.0